| time (UTC) | temp F | wind direction | speed MPH | gust MPH | rain 1hr in | rain 24hr in | rain mn in | humidity % | barometer mb |
| 20260831194101 | 86 | 0 | 2.0 | 8.0 | 0.00 | 0.00 | 0.00 | 68 | 1019.2 |
| 20260831193600 | 86 | 277 | 3.0 | 9.0 | 0.00 | 0.00 | 0.00 | 67 | 1019.3 |
| 20260831193134 | 86 | 249 | 4.0 | 9.0 | 0.00 | 0.00 | 0.00 | 66 | 1019.4 |
| 20260831192601 | 86 | 281 | 3.0 | 9.0 | 0.00 | 0.00 | 0.00 | 66 | 1019.4 |
| 20260831192105 | 86 | 281 | 4.0 | 9.0 | 0.00 | 0.00 | 0.00 | 65 | 1019.4 |
| 20260831191607 | 87 | 282 | 3.0 | 11.0 | 0.00 | 0.00 | 0.00 | 64 | 1019.5 |
| 20260831191102 | 87 | 270 | 3.0 | 11.0 | 0.00 | 0.00 | 0.00 | 63 | 1019.5 |
| 20260831190603 | 87 | 248 | 5.0 | 11.0 | 0.00 | 0.00 | 0.00 | 62 | 1019.4 |
| 20260831190104 | 88 | 257 | 6.0 | 11.0 | 0.00 | 0.00 | 0.00 | 61 | 1019.4 |
| 20260831185602 | 89 | 266 | 3.0 | 9.0 | 0.00 | 0.00 | 0.00 | 62 | 1019.3 |
| 20260831185100 | 89 | 333 | 2.0 | 10.0 | 0.00 | 0.00 | 0.00 | 63 | 1019.3 |
| 20260831184608 | 88 | 303 | 2.0 | 10.0 | 0.00 | 0.00 | 0.00 | 65 | 1019.4 |
| 20260831184100 | 88 | 282 | 4.0 | 10.0 | 0.00 | 0.00 | 0.00 | 64 | 1019.5 |
| 20260831183559 | 88 | 299 | 4.0 | 11.0 | 0.00 | 0.00 | 0.00 | 65 | 1019.5 |
| 20260831183107 | 87 | 251 | 4.0 | 11.0 | 0.00 | 0.00 | 0.00 | 66 | 1019.6 |
| 20260831182557 | 87 | 279 | 5.0 | 11.0 | 0.00 | 0.00 | 0.00 | 65 | 1019.6 |
| 20260831182057 | 87 | 290 | 3.0 | 11.0 | 0.00 | 0.00 | 0.00 | 64 | 1019.8 |
| 20260831181614 | 87 | 259 | 6.0 | 12.0 | 0.00 | 0.00 | 0.00 | 63 | 1019.9 |
| 20260831181058 | 87 | 270 | 6.0 | 12.0 | 0.00 | 0.00 | 0.00 | 63 | 1019.9 |
| 20260831180557 | 88 | 250 | 5.0 | 14.0 | 0.00 | 0.00 | 0.00 | 62 | 1019.9 |
| 20260831180110 | 88 | 333 | 5.0 | 14.0 | 0.00 | 0.00 | 0.00 | 61 | 1019.9 |
| 20260831175601 | 89 | 271 | 7.0 | 15.0 | 0.00 | 0.00 | 0.00 | 59 | 1019.7 |
| 20260831175057 | 90 | 257 | 7.0 | 16.0 | 0.00 | 0.00 | 0.00 | 58 | 1019.7 |
| 20260831174602 | 90 | 335 | 9.0 | 16.0 | 0.00 | 0.00 | 0.00 | 61 | 1019.6 |
| 20260831174101 | 90 | 296 | 7.0 | 13.0 | 0.00 | 0.00 | 0.00 | 63 | 1019.7 |
| 20260831173601 | 89 | 269 | 6.0 | 13.0 | 0.00 | 0.00 | 0.00 | 63 | 1019.8 |
| 20260831173106 | 89 | 288 | 6.0 | 14.0 | 0.00 | 0.00 | 0.00 | 62 | 1019.9 |
| 20260831172557 | 88 | 265 | 4.0 | 17.0 | 0.00 | 0.00 | 0.00 | 63 | 1019.9 |
| 20260831172057 | 89 | 272 | 8.0 | 17.0 | 0.00 | 0.00 | 0.00 | 61 | 1020.1 |
| 20260831171607 | 90 | 242 | 7.0 | 14.0 | 0.00 | 0.00 | 0.00 | 60 | 1020.1 |
| 20260831171100 | 90 | 252 | 8.0 | 14.0 | 0.00 | 0.00 | 0.00 | 60 | 1020.1 |
| 20260831170601 | 90 | 245 | 5.0 | 12.0 | 0.00 | 0.00 | 0.00 | 62 | 1020.1 |
| 20260831170118 | 89 | 288 | 5.0 | 11.0 | 0.00 | 0.00 | 0.00 | 63 | 1020.1 |
| 20260831165558 | 89 | 288 | 5.0 | 12.0 | 0.00 | 0.00 | 0.00 | 62 | 1020.2 |
| 20260831165058 | 88 | 256 | 6.0 | 14.0 | 0.00 | 0.00 | 0.00 | 63 | 1020.2 |
| 20260831164626 | 88 | 301 | 7.0 | 14.0 | 0.00 | 0.00 | 0.00 | 61 | 1020.2 |
| 20260831164058 | 89 | 312 | 5.0 | 12.0 | 0.00 | 0.00 | 0.00 | 60 | 1020.2 |
| 20260831163558 | 89 | 269 | 6.0 | 14.0 | 0.00 | 0.00 | 0.00 | 58 | 1020.2 |
| 20260831163102 | 90 | 258 | 7.0 | 14.0 | 0.00 | 0.00 | 0.00 | 60 | 1020.3 |
| 20260831162559 | 90 | 277 | 3.0 | 13.0 | 0.00 | 0.00 | 0.00 | 60 | 1020.4 |
| 20260831162100 | 89 | 268 | 5.0 | 11.0 | 0.00 | 0.00 | 0.00 | 59 | 1020.3 |
| 20260831161612 | 89 | 246 | 6.0 | 11.0 | 0.00 | 0.00 | 0.00 | 61 | 1020.3 |
| 20260831161058 | 89 | 270 | 4.0 | 10.0 | 0.00 | 0.00 | 0.00 | 62 | 1020.3 |
| 20260831160602 | 89 | 284 | 4.0 | 14.0 | 0.00 | 0.00 | 0.00 | 63 | 1020.3 |
| 20260831160118 | 88 | 254 | 5.0 | 14.0 | 0.00 | 0.00 | 0.00 | 61 | 1020.4 |
| 20260831155558 | 88 | 282 | 5.0 | 14.0 | 0.00 | 0.00 | 0.00 | 62 | 1020.3 |
| 20260831155059 | 88 | 274 | 5.0 | 12.0 | 0.00 | 0.00 | 0.00 | 62 | 1020.3 |
| 20260831154632 | 88 | 262 | 6.0 | 12.0 | 0.00 | 0.00 | 0.00 | 63 | 1020.4 |
| 20260831154058 | 88 | 269 | 5.0 | 12.0 | 0.00 | 0.00 | 0.00 | 63 | 1020.4 |
| 20260831153559 | 87 | 278 | 4.0 | 12.0 | 0.00 | 0.00 | 0.00 | 63 | 1020.2 |
| 20260831153113 | 87 | 258 | 5.0 | 12.0 | 0.00 | 0.00 | 0.00 | 63 | 1020.3 |
| 20260831152559 | 87 | 302 | 5.0 | 10.0 | 0.00 | 0.00 | 0.00 | 65 | 1020.3 |
| 20260831152059 | 87 | 300 | 4.0 | 10.0 | 0.00 | 0.00 | 0.00 | 66 | 1020.3 |
| 20260831151610 | 86 | 251 | 5.0 | 13.0 | 0.00 | 0.00 | 0.00 | 65 | 1020.4 |
| 20260831151101 | 86 | 264 | 6.0 | 13.0 | 0.00 | 0.00 | 0.00 | 66 | 1020.3 |
| 20260831150602 | 86 | 279 | 4.0 | 12.0 | 0.00 | 0.00 | 0.00 | 66 | 1020.2 |
| 20260831150108 | 86 | 259 | 5.0 | 12.0 | 0.00 | 0.00 | 0.00 | 66 | 1020.2 |
| 20260831145559 | 86 | 274 | 5.0 | 11.0 | 0.00 | 0.00 | 0.00 | 67 | 1020.1 |
| 20260831145105 | 85 | 273 | 3.0 | 10.0 | 0.00 | 0.00 | 0.00 | 68 | 1020.1 |
| 20260831144604 | 85 | 266 | 4.0 | 10.0 | 0.00 | 0.00 | 0.00 | 70 | 1020.1 |
| 20260831144059 | 84 | 275 | 6.0 | 10.0 | 0.00 | 0.00 | 0.00 | 71 | 1020.1 |
| 20260831143558 | 83 | 287 | 3.0 | 9.0 | 0.00 | 0.00 | 0.00 | 71 | 1020.0 |
| 20260831143109 | 83 | 294 | 2.0 | 7.0 | 0.00 | 0.00 | 0.00 | 74 | 1019.9 |
| 20260831142559 | 82 | 275 | 1.0 | 7.0 | 0.00 | 0.00 | 0.00 | 75 | 1019.9 |
| 20260831142059 | 82 | 265 | 1.0 | 8.0 | 0.00 | 0.00 | 0.00 | 75 | 1019.7 |
| 20260831141607 | 81 | 248 | 1.0 | 8.0 | 0.00 | 0.00 | 0.00 | 77 | 1019.7 |
| 20260831141101 | 80 | 271 | 3.0 | 8.0 | 0.00 | 0.00 | 0.00 | 77 | 1019.7 |
| 20260831140559 | 80 | 263 | 2.0 | 7.0 | 0.00 | 0.00 | 0.00 | 78 | 1019.7 |
| 20260831140125 | 79 | 246 | 1.0 | 7.0 | 0.00 | 0.00 | 0.00 | 78 | 1019.6 |
| 20260831135557 | 79 | 286 | 2.0 | 7.0 | 0.00 | 0.00 | 0.00 | 79 | 1019.7 |
| 20260831135057 | 78 | 0 | 2.0 | 8.0 | 0.00 | 0.00 | 0.00 | 79 | 1019.8 |
| 20260831134607 | 78 | 244 | 1.0 | 8.0 | 0.00 | 0.00 | 0.00 | 80 | 1019.9 |
| 20260831134057 | 78 | 0 | 2.0 | 8.0 | 0.00 | 0.00 | 0.00 | 79 | 1020.0 |
| 20260831133557 | 77 | 240 | 1.0 | 6.0 | 0.00 | 0.00 | 0.00 | 80 | 1020.0 |
| 20260831133106 | 77 | 286 | 1.0 | 6.0 | 0.00 | 0.00 | 0.00 | 80 | 1020.0 |
| 20260831132558 | 76 | 229 | 0.0 | 4.0 | 0.00 | 0.00 | 0.00 | 81 | 1020.0 |
| 20260831132102 | 76 | 0 | 0.0 | 5.0 | 0.00 | 0.00 | 0.00 | 81 | 1020.1 |
| 20260831131604 | 76 | 0 | 1.0 | 5.0 | 0.00 | 0.00 | 0.00 | 81 | 1020.1 |
| 20260831131059 | 76 | 0 | 1.0 | 4.0 | 0.00 | 0.00 | 0.00 | 81 | 1019.9 |
| 20260831130557 | 75 | 0 | 0.0 | 3.0 | 0.00 | 0.00 | 0.00 | 82 | 1020.0 |
| 20260831130111 | 75 | 0 | 1.0 | 7.0 | 0.00 | 0.00 | 0.00 | 82 | 1019.9 |
| 20260831125557 | 75 | 266 | 1.0 | 7.0 | 0.00 | 0.00 | 0.00 | 82 | 1019.9 |
| 20260831125057 | 75 | 256 | 1.0 | 6.0 | 0.00 | 0.00 | 0.00 | 81 | 1019.8 |
| 20260831124605 | 75 | 244 | 1.0 | 7.0 | 0.00 | 0.00 | 0.00 | 81 | 1019.7 |
| 20260831124056 | 75 | 256 | 2.0 | 7.0 | 0.00 | 0.00 | 0.00 | 80 | 1019.7 |
| 20260831123557 | 74 | 254 | 2.0 | 7.0 | 0.00 | 0.00 | 0.00 | 81 | 1019.8 |
| 20260831123106 | 74 | 254 | 2.0 | 7.0 | 0.00 | 0.00 | 0.00 | 81 | 1019.7 |
| 20260831122557 | 74 | 239 | 2.0 | 7.0 | 0.00 | 0.00 | 0.00 | 81 | 1019.6 |
| 20260831122100 | 74 | 236 | 3.0 | 8.0 | 0.00 | 0.00 | 0.00 | 81 | 1019.7 |
| 20260831121605 | 74 | 252 | 3.0 | 8.0 | 0.00 | 0.00 | 0.00 | 81 | 1019.6 |
| 20260831121057 | 74 | 266 | 3.0 | 7.0 | 0.00 | 0.00 | 0.00 | 81 | 1019.5 |
| 20260831120558 | 74 | 246 | 2.0 | 7.0 | 0.00 | 0.00 | 0.00 | 81 | 1019.5 |
| 20260831120117 | 73 | 238 | 2.0 | 9.0 | 0.00 | 0.00 | 0.00 | 81 | 1019.5 |
| 20260831115557 | 73 | 252 | 3.0 | 9.0 | 0.00 | 0.00 | 0.00 | 81 | 1019.4 |
| 20260831115057 | 73 | 225 | 3.0 | 9.0 | 0.00 | 0.00 | 0.00 | 82 | 1019.4 |
| 20260831114611 | 73 | 242 | 2.0 | 7.0 | 0.00 | 0.00 | 0.00 | 82 | 1019.4 |
| 20260831114101 | 73 | 219 | 2.0 | 5.0 | 0.00 | 0.00 | 0.00 | 82 | 1019.3 |
| 20260831113600 | 73 | 223 | 1.0 | 5.0 | 0.00 | 0.00 | 0.00 | 83 | 1019.2 |
| 20260831113108 | 73 | 232 | 1.0 | 6.0 | 0.00 | 0.00 | 0.00 | 83 | 1019.4 |
| 20260831112558 | 73 | 239 | 1.0 | 6.0 | 0.00 | 0.00 | 0.00 | 83 | 1019.4 |
| 20260831112058 | 73 | 233 | 1.0 | 4.0 | 0.00 | 0.00 | 0.00 | 83 | 1019.4 |
| 20260831111607 | 73 | 0 | 0.0 | 3.0 | 0.00 | 0.00 | 0.00 | 83 | 1019.4 |
| 20260831111057 | 73 | 0 | 0.0 | 1.0 | 0.00 | 0.00 | 0.00 | 83 | 1019.4 |
| 20260831110557 | 73 | 0 | 0.0 | 1.0 | 0.00 | 0.00 | 0.00 | 83 | 1019.3 |
| 20260831110107 | 73 | 0 | 0.0 | 2.0 | 0.00 | 0.00 | 0.00 | 83 | 1019.3 |
| 20260831105559 | 73 | 0 | 0.0 | 5.0 | 0.00 | 0.00 | 0.00 | 83 | 1019.2 |
| 20260831105059 | 72 | 238 | 0.0 | 5.0 | 0.00 | 0.00 | 0.00 | 83 | 1019.2 |
| 20260831104614 | 72 | 0 | 1.0 | 5.0 | 0.00 | 0.00 | 0.00 | 83 | 1019.1 |
| 20260831104058 | 72 | 223 | 0.0 | 4.0 | 0.00 | 0.00 | 0.00 | 83 | 1019.1 |
| 20260831103557 | 72 | 225 | 0.0 | 5.0 | 0.00 | 0.00 | 0.00 | 83 | 1019.1 |
| 20260831103111 | 73 | 0 | 0.0 | 5.0 | 0.00 | 0.00 | 0.00 | 83 | 1019.0 |
| 20260831102559 | 73 | 218 | 0.0 | 5.0 | 0.00 | 0.00 | 0.00 | 84 | 1019.0 |
| 20260831102058 | 73 | 0 | 0.0 | 4.0 | 0.00 | 0.00 | 0.00 | 84 | 1019.1 |
| 20260831101609 | 73 | 0 | 1.0 | 4.0 | 0.00 | 0.00 | 0.00 | 83 | 1019.0 |
| 20260831101059 | 73 | 0 | 2.0 | 4.0 | 0.00 | 0.00 | 0.00 | 83 | 1019.0 |
| 20260831100600 | 73 | 0 | 1.0 | 3.0 | 0.00 | 0.00 | 0.00 | 83 | 1018.9 |
| 20260831100122 | 73 | 0 | 0.0 | 3.0 | 0.00 | 0.00 | 0.00 | 83 | 1019.0 |
| 20260831095559 | 73 | 235 | 0.0 | 3.0 | 0.00 | 0.00 | 0.00 | 83 | 1018.9 |
| 20260831095059 | 73 | 0 | 0.0 | 0.0 | 0.00 | 0.00 | 0.00 | 83 | 1019.1 |
| 20260831094622 | 73 | 0 | 0.0 | 0.0 | 0.00 | 0.00 | 0.00 | 83 | 1019.0 |
| 20260831094100 | 73 | 0 | 0.0 | 0.0 | 0.00 | 0.00 | 0.00 | 83 | 1019.1 |
| 20260831093558 | 73 | 0 | 0.0 | 1.0 | 0.00 | 0.00 | 0.00 | 83 | 1019.0 |
| 20260831093131 | 73 | 0 | 0.0 | 2.0 | 0.00 | 0.00 | 0.00 | 83 | 1019.1 |
| 20260831092600 | 73 | 0 | 0.0 | 3.0 | 0.00 | 0.00 | 0.00 | 83 | 1019.0 |
| 20260831092059 | 73 | 226 | 0.0 | 3.0 | 0.00 | 0.00 | 0.00 | 83 | 1019.2 |
| 20260831091610 | 73 | 0 | 0.0 | 2.0 | 0.00 | 0.00 | 0.00 | 83 | 1019.2 |
| 20260831091059 | 73 | 0 | 0.0 | 0.0 | 0.00 | 0.00 | 0.00 | 83 | 1019.3 |
| 20260831090602 | 73 | 0 | 0.0 | 0.0 | 0.00 | 0.00 | 0.00 | 83 | 1019.2 |
| 20260831090138 | 73 | 0 | 0.0 | 1.0 | 0.00 | 0.00 | 0.00 | 83 | 1018.9 |
| 20260831085602 | 73 | 0 | 0.0 | 2.0 | 0.00 | 0.00 | 0.00 | 83 | 1018.9 |
| 20260831085103 | 73 | 0 | 0.0 | 2.0 | 0.00 | 0.00 | 0.00 | 83 | 1018.9 |
| 20260831084626 | 73 | 0 | 0.0 | 3.0 | 0.00 | 0.00 | 0.00 | 84 | 1019.1 |
| 20260831084104 | 73 | 207 | 0.0 | 3.0 | 0.00 | 0.00 | 0.00 | 84 | 1018.9 |
| 20260831083559 | 73 | 0 | 0.0 | 0.0 | 0.00 | 0.00 | 0.00 | 84 | 1018.9 |
| 20260831083112 | 73 | 0 | 0.0 | 3.0 | 0.00 | 0.00 | 0.00 | 84 | 1018.8 |
| 20260831082559 | 73 | 0 | 0.0 | 3.0 | 0.00 | 0.00 | 0.00 | 85 | 1018.6 |
| 20260831082059 | 73 | 0 | 1.0 | 3.0 | 0.00 | 0.00 | 0.00 | 85 | 1018.8 |
| 20260831081606 | 73 | 0 | 1.0 | 3.0 | 0.00 | 0.00 | 0.00 | 85 | 1018.6 |
| 20260831081058 | 73 | 188 | 0.0 | 3.0 | 0.00 | 0.00 | 0.00 | 85 | 1018.5 |
| 20260831080601 | 73 | 196 | 0.0 | 3.0 | 0.00 | 0.00 | 0.00 | 85 | 1018.6 |
| 20260831080130 | 73 | 0 | 0.0 | 3.0 | 0.00 | 0.00 | 0.00 | 85 | 1018.6 |
| 20260831075559 | 73 | 0 | 0.0 | 4.0 | 0.00 | 0.00 | 0.00 | 85 | 1018.7 |
| 20260831075059 | 73 | 0 | 0.0 | 4.0 | 0.00 | 0.00 | 0.00 | 85 | 1018.8 |
| 20260831074607 | 73 | 0 | 0.0 | 2.0 | 0.00 | 0.00 | 0.00 | 85 | 1018.8 |
| 20260831074057 | 73 | 0 | 0.0 | 3.0 | 0.00 | 0.00 | 0.00 | 85 | 1018.8 |
| 20260831073557 | 73 | 0 | 0.0 | 3.0 | 0.00 | 0.00 | 0.00 | 85 | 1018.7 |
| 20260831073105 | 73 | 0 | 0.0 | 3.0 | 0.00 | 0.00 | 0.00 | 85 | 1018.8 |
| 20260831072556 | 73 | 0 | 0.0 | 3.0 | 0.00 | 0.00 | 0.00 | 85 | 1018.6 |
| 20260831072057 | 73 | 0 | 0.0 | 0.0 | 0.00 | 0.00 | 0.00 | 85 | 1018.8 |
| 20260831071604 | 73 | 0 | 0.0 | 0.0 | 0.00 | 0.00 | 0.00 | 85 | 1018.8 |
| 20260831071057 | 73 | 0 | 0.0 | 0.0 | 0.00 | 0.00 | 0.00 | 85 | 1018.9 |
| 20260831070557 | 73 | 0 | 0.0 | 0.0 | 0.00 | 0.00 | 0.00 | 86 | 1018.9 |
| 20260831070106 | 72 | 0 | 0.0 | 0.0 | 0.00 | 0.00 | 0.00 | 86 | 1019.0 |
| 20260831065557 | 72 | 0 | 0.0 | 0.0 | 0.00 | 0.00 | 0.00 | 86 | 1019.0 |
| 20260831065056 | 72 | 0 | 0.0 | 0.0 | 0.00 | 0.00 | 0.00 | 87 | 1019.1 |
| 20260831064609 | 72 | 0 | 0.0 | 0.0 | 0.00 | 0.00 | 0.00 | 86 | 1019.1 |
| 20260831064056 | 71 | 0 | 0.0 | 0.0 | 0.00 | 0.00 | 0.00 | 86 | 1019.1 |
| 20260831063558 | 71 | 0 | 0.0 | 0.0 | 0.00 | 0.00 | 0.00 | 86 | 1019.2 |
| 20260831063114 | 71 | 0 | 0.0 | 0.0 | 0.00 | 0.00 | 0.00 | 86 | 1019.3 |
| 20260831062557 | 71 | 0 | 0.0 | 0.0 | 0.00 | 0.00 | 0.00 | 86 | 1019.4 |
| 20260831062058 | 71 | 0 | 0.0 | 0.0 | 0.00 | 0.00 | 0.00 | 86 | 1019.2 |
| 20260831061608 | 71 | 0 | 0.0 | 0.0 | 0.00 | 0.00 | 0.00 | 86 | 1019.3 |
| 20260831061058 | 71 | 0 | 0.0 | 0.0 | 0.00 | 0.00 | 0.00 | 85 | 1019.3 |
| 20260831060558 | 71 | 0 | 0.0 | 0.0 | 0.00 | 0.00 | 0.00 | 85 | 1019.3 |
| 20260831060113 | 71 | 0 | 0.0 | 0.0 | 0.00 | 0.00 | 0.00 | 85 | 1019.3 |
| 20260831055557 | 71 | 0 | 0.0 | 0.0 | 0.00 | 0.00 | 0.00 | 85 | 1019.4 |
| 20260831055057 | 71 | 0 | 0.0 | 0.0 | 0.00 | 0.00 | 0.00 | 85 | 1019.3 |
| 20260831054611 | 71 | 0 | 0.0 | 0.0 | 0.00 | 0.00 | 0.00 | 85 | 1019.5 |
| 20260831054057 | 71 | 0 | 0.0 | 0.0 | 0.00 | 0.00 | 0.00 | 85 | 1019.4 |
| 20260831053558 | 71 | 0 | 0.0 | 0.0 | 0.00 | 0.00 | 0.00 | 85 | 1019.4 |
| 20260831053133 | 71 | 0 | 0.0 | 0.0 | 0.00 | 0.00 | 0.00 | 85 | 1019.5 |
| 20260831052557 | 71 | 0 | 0.0 | 0.0 | 0.00 | 0.00 | 0.00 | 85 | 1019.5 |
| 20260831052056 | 71 | 0 | 0.0 | 0.0 | 0.00 | 0.00 | 0.00 | 85 | 1019.6 |
| 20260831051606 | 71 | 0 | 0.0 | 0.0 | 0.00 | 0.00 | 0.00 | 85 | 1019.6 |
| 20260831051057 | 71 | 0 | 0.0 | 0.0 | 0.00 | 0.00 | 0.00 | 85 | 1019.6 |
| 20260831050559 | 71 | 0 | 0.0 | 0.0 | 0.00 | 0.00 | 0.00 | 85 | 1019.6 |
| 20260831050117 | 71 | 0 | 0.0 | 0.0 | 0.00 | 0.00 | 0.00 | 86 | 1019.6 |
| 20260831045557 | 71 | 0 | 0.0 | 0.0 | 0.00 | 0.00 | 0.00 | 86 | 1019.6 |
| 20260831045057 | 70 | 0 | 0.0 | 0.0 | 0.00 | 0.00 | 0.00 | 86 | 1019.6 |
| 20260831044645 | 70 | 0 | 0.0 | 0.0 | 0.00 | 0.00 | 0.00 | 87 | 1019.7 |
| 20260831044058 | 70 | 0 | 0.0 | 0.0 | 0.00 | 0.00 | 0.00 | 87 | 1019.6 |
| 20260831043558 | 70 | 0 | 0.0 | 0.0 | 0.00 | 0.00 | 0.00 | 87 | 1019.7 |
| 20260831043105 | 70 | 0 | 0.0 | 0.0 | 0.00 | 0.00 | 0.00 | 87 | 1019.7 |
| 20260831042558 | 70 | 0 | 0.0 | 0.0 | 0.00 | 0.00 | 0.00 | 87 | 1019.6 |
| 20260831042057 | 70 | 0 | 0.0 | 0.0 | 0.00 | 0.00 | 0.00 | 86 | 1019.7 |
| 20260831041617 | 70 | 0 | 0.0 | 0.0 | 0.00 | 0.00 | 0.00 | 85 | 1019.8 |
| 20260831041058 | 71 | 0 | 0.0 | 0.0 | 0.00 | 0.00 | 0.00 | 85 | 1019.8 |
| 20260831040559 | 71 | 0 | 0.0 | 0.0 | 0.00 | 0.00 | 0.00 | 85 | 1019.8 |
| 20260831040105 | 71 | 0 | 0.0 | 0.0 | 0.00 | 0.00 | 0.00 | 84 | 1019.7 |
| 20260831035557 | 71 | 0 | 0.0 | 0.0 | 0.00 | 0.00 | 0.00 | 84 | 1019.7 |
| 20260831035058 | 72 | 0 | 0.0 | 0.0 | 0.00 | 0.00 | 0.00 | 84 | 1019.8 |
| 20260831034610 | 72 | 0 | 0.0 | 0.0 | 0.00 | 0.00 | 0.00 | 84 | 1019.8 |
| 20260831034057 | 72 | 0 | 0.0 | 0.0 | 0.00 | 0.00 | 0.00 | 84 | 1019.7 |
| 20260831033557 | 72 | 0 | 0.0 | 0.0 | 0.00 | 0.00 | 0.00 | 83 | 1019.7 |
| 20260831033111 | 72 | 0 | 0.0 | 0.0 | 0.00 | 0.00 | 0.00 | 83 | 1019.6 |
| 20260831032558 | 73 | 0 | 0.0 | 0.0 | 0.00 | 0.00 | 0.00 | 82 | 1019.6 |
| 20260831032057 | 73 | 0 | 0.0 | 0.0 | 0.00 | 0.00 | 0.00 | 82 | 1019.6 |
| 20260831031604 | 73 | 0 | 0.0 | 0.0 | 0.00 | 0.00 | 0.00 | 82 | 1019.7 |
| 20260831031058 | 73 | 0 | 0.0 | 0.0 | 0.00 | 0.00 | 0.00 | 82 | 1019.6 |
| 20260831030557 | 73 | 0 | 0.0 | 0.0 | 0.00 | 0.00 | 0.00 | 82 | 1019.7 |
| 20260831030107 | 73 | 0 | 0.0 | 0.0 | 0.00 | 0.00 | 0.00 | 82 | 1019.7 |
| 20260831025602 | 73 | 0 | 0.0 | 0.0 | 0.00 | 0.00 | 0.00 | 82 | 1019.8 |
| 20260831025058 | 73 | 0 | 0.0 | 0.0 | 0.00 | 0.00 | 0.00 | 82 | 1019.7 |
| 20260831024606 | 73 | 0 | 0.0 | 0.0 | 0.00 | 0.00 | 0.00 | 82 | 1019.6 |
| 20260831024059 | 73 | 0 | 0.0 | 0.0 | 0.00 | 0.00 | 0.00 | 82 | 1019.7 |
| 20260831023558 | 73 | 0 | 0.0 | 0.0 | 0.00 | 0.00 | 0.00 | 82 | 1019.7 |
| 20260831023111 | 73 | 0 | 0.0 | 0.0 | 0.00 | 0.00 | 0.00 | 82 | 1019.8 |
| 20260831022558 | 73 | 0 | 0.0 | 0.0 | 0.00 | 0.00 | 0.00 | 82 | 1019.9 |
| 20260831022100 | 73 | 0 | 0.0 | 0.0 | 0.00 | 0.00 | 0.00 | 82 | 1019.8 |
| 20260831021611 | 74 | 0 | 0.0 | 0.0 | 0.00 | 0.00 | 0.00 | 81 | 1019.9 |
| 20260831021101 | 74 | 0 | 0.0 | 0.0 | 0.00 | 0.00 | 0.00 | 81 | 1019.9 |
| 20260831020558 | 74 | 0 | 0.0 | 0.0 | 0.00 | 0.00 | 0.00 | 81 | 1020.0 |
| 20260831020115 | 74 | 0 | 0.0 | 0.0 | 0.00 | 0.00 | 0.00 | 81 | 1020.1 |
| 20260831015556 | 74 | 0 | 0.0 | 0.0 | 0.00 | 0.00 | 0.00 | 80 | 1020.2 |
| 20260831015057 | 74 | 0 | 0.0 | 0.0 | 0.00 | 0.00 | 0.00 | 80 | 1020.1 |
| 20260831014607 | 75 | 0 | 0.0 | 0.0 | 0.00 | 0.00 | 0.00 | 79 | 1020.1 |
| 20260831014057 | 75 | 0 | 0.0 | 0.0 | 0.00 | 0.00 | 0.00 | 79 | 1020.0 |
| 20260831013557 | 75 | 0 | 0.0 | 0.0 | 0.00 | 0.00 | 0.00 | 79 | 1020.0 |
| 20260831013107 | 76 | 0 | 0.0 | 0.0 | 0.00 | 0.00 | 0.00 | 79 | 1019.9 |
| 20260831012600 | 76 | 0 | 0.0 | 0.0 | 0.00 | 0.00 | 0.00 | 78 | 1020.0 |
| 20260831012059 | 76 | 0 | 0.0 | 0.0 | 0.00 | 0.00 | 0.00 | 78 | 1019.9 |
| 20260831011603 | 76 | 0 | 0.0 | 0.0 | 0.00 | 0.00 | 0.00 | 77 | 1020.0 |
| 20260831011059 | 77 | 0 | 0.0 | 0.0 | 0.00 | 0.00 | 0.00 | 77 | 1020.0 |
| 20260831010600 | 77 | 0 | 0.0 | 0.0 | 0.00 | 0.00 | 0.00 | 76 | 1019.7 |
| 20260831010119 | 77 | 0 | 0.0 | 0.0 | 0.00 | 0.00 | 0.00 | 76 | 1019.7 |
| 20260831005600 | 77 | 0 | 0.0 | 0.0 | 0.00 | 0.00 | 0.00 | 76 | 1019.5 |
| 20260831005100 | 77 | 0 | 0.0 | 0.0 | 0.00 | 0.00 | 0.00 | 75 | 1019.5 |
| 20260831004619 | 77 | 0 | 0.0 | 0.0 | 0.00 | 0.00 | 0.00 | 75 | 1019.5 |
| 20260831004059 | 78 | 0 | 0.0 | 0.0 | 0.00 | 0.00 | 0.00 | 74 | 1019.5 |
| 20260831003559 | 78 | 0 | 0.0 | 0.0 | 0.00 | 0.00 | 0.00 | 74 | 1019.5 |
| 20260831003109 | 78 | 0 | 0.0 | 0.0 | 0.00 | 0.00 | 0.00 | 73 | 1019.4 |
| 20260831002558 | 79 | 0 | 0.0 | 0.0 | 0.00 | 0.00 | 0.00 | 72 | 1019.4 |
| 20260831002059 | 79 | 0 | 0.0 | 0.0 | 0.00 | 0.00 | 0.00 | 72 | 1019.4 |
| 20260831001602 | 79 | 0 | 0.0 | 0.0 | 0.00 | 0.00 | 0.00 | 71 | 1019.3 |
| 20260831001055 | 80 | 0 | 0.0 | 0.0 | 0.00 | 0.00 | 0.00 | 71 | 1019.2 |
| 20260831000559 | 80 | 0 | 0.0 | 0.0 | 0.00 | 0.00 | 0.00 | 70 | 1019.2 |
| 20260831000111 | 80 | 0 | 0.0 | 0.0 | 0.00 | 0.00 | 0.00 | 70 | 1019.2 |
| 20260830235559 | 80 | 0 | 0.0 | 0.0 | 0.00 | 0.00 | 0.00 | 69 | 1019.2 |
| 20260830235059 | 80 | 0 | 0.0 | 0.0 | 0.00 | 0.00 | 0.00 | 69 | 1019.1 |
| 20260830234635 | 81 | 0 | 0.0 | 0.0 | 0.00 | 0.00 | 0.00 | 67 | 1019.1 |
| 20260830234059 | 81 | 0 | 0.0 | 0.0 | 0.00 | 0.00 | 0.00 | 67 | 1019.1 |
| 20260830233559 | 81 | 0 | 0.0 | 1.0 | 0.00 | 0.00 | 0.00 | 67 | 1019.0 |
| 20260830233107 | 81 | 0 | 0.0 | 2.0 | 0.00 | 0.00 | 0.00 | 66 | 1019.0 |
| 20260830232601 | 81 | 0 | 0.0 | 4.0 | 0.00 | 0.00 | 0.00 | 65 | 1018.8 |
| 20260830232056 | 82 | 0 | 0.0 | 4.0 | 0.00 | 0.00 | 0.00 | 65 | 1018.8 |
| 20260830231612 | 82 | 263 | 1.0 | 7.0 | 0.00 | 0.00 | 0.00 | 64 | 1018.8 |
| 20260830231059 | 83 | 0 | 1.0 | 7.0 | 0.00 | 0.00 | 0.00 | 63 | 1018.6 |
| 20260830230558 | 83 | 269 | 1.0 | 7.0 | 0.00 | 0.00 | 0.00 | 62 | 1018.7 |
| 20260830230104 | 84 | 273 | 2.0 | 8.0 | 0.00 | 0.00 | 0.00 | 61 | 1018.6 |
| 20260830225559 | 84 | 236 | 2.0 | 8.0 | 0.00 | 0.00 | 0.00 | 61 | 1018.6 |
| 20260830225059 | 85 | 274 | 2.0 | 7.0 | 0.00 | 0.00 | 0.00 | 60 | 1018.7 |
| 20260830224604 | 85 | 0 | 1.0 | 7.0 | 0.00 | 0.00 | 0.00 | 60 | 1018.7 |
| 20260830224059 | 85 | 273 | 1.0 | 9.0 | 0.00 | 0.00 | 0.00 | 60 | 1018.6 |
| 20260830223559 | 85 | 249 | 3.0 | 9.0 | 0.00 | 0.00 | 0.00 | 59 | 1018.5 |
| 20260830223104 | 86 | 235 | 4.0 | 10.0 | 0.00 | 0.00 | 0.00 | 58 | 1018.5 |
| 20260830222556 | 86 | 290 | 3.0 | 10.0 | 0.00 | 0.00 | 0.00 | 60 | 1018.5 |
| 20260830222055 | 85 | 252 | 3.0 | 12.0 | 0.00 | 0.00 | 0.00 | 59 | 1018.4 |
| 20260830221609 | 85 | 233 | 5.0 | 12.0 | 0.00 | 0.00 | 0.00 | 59 | 1018.3 |
| 20260830221057 | 85 | 194 | 4.0 | 10.0 | 0.00 | 0.00 | 0.00 | 60 | 1018.3 |
| 20260830220557 | 85 | 241 | 3.0 | 9.0 | 0.00 | 0.00 | 0.00 | 61 | 1018.3 |
| 20260830220113 | 84 | 247 | 3.0 | 11.0 | 0.00 | 0.00 | 0.00 | 62 | 1018.3 |
| 20260830215558 | 84 | 227 | 3.0 | 11.0 | 0.00 | 0.00 | 0.00 | 61 | 1018.3 |
| 20260830215058 | 85 | 222 | 5.0 | 11.0 | 0.00 | 0.00 | 0.00 | 60 | 1018.2 |
| 20260830214603 | 85 | 257 | 6.0 | 13.0 | 0.00 | 0.00 | 0.00 | 60 | 1018.2 |
| 20260830214057 | 85 | 250 | 4.0 | 13.0 | 0.00 | 0.00 | 0.00 | 59 | 1018.2 |
| 20260830213557 | 85 | 228 | 6.0 | 13.0 | 0.00 | 0.00 | 0.00 | 58 | 1018.0 |
| 20260830213123 | 85 | 218 | 2.0 | 10.0 | 0.00 | 0.00 | 0.00 | 60 | 1018.0 |
| 20260830212557 | 85 | 198 | 4.0 | 10.0 | 0.00 | 0.00 | 0.00 | 59 | 1018.0 |
| 20260830212058 | 85 | 236 | 3.0 | 12.0 | 0.00 | 0.00 | 0.00 | 61 | 1018.1 |
| 20260830211609 | 84 | 196 | 3.0 | 12.0 | 0.00 | 0.00 | 0.00 | 61 | 1018.0 |
| 20260830211057 | 84 | 232 | 5.0 | 9.0 | 0.00 | 0.00 | 0.00 | 59 | 1017.9 |
| 20260830210558 | 84 | 221 | 4.0 | 8.0 | 0.00 | 0.00 | 0.00 | 63 | 1017.8 |
| 20260830210112 | 84 | 195 | 2.0 | 6.0 | 0.00 | 0.00 | 0.00 | 66 | 1017.9 |
| 20260830205601 | 83 | 0 | 2.0 | 6.0 | 0.00 | 0.00 | 0.00 | 67 | 1017.9 |
| 20260830205058 | 83 | 205 | 2.0 | 5.0 | 0.00 | 0.00 | 0.00 | 66 | 1017.8 |
| 20260830204612 | 82 | 205 | 1.0 | 4.0 | 0.00 | 0.00 | 0.00 | 67 | 1017.9 |
| 20260830204057 | 82 | 0 | 0.0 | 6.0 | 0.00 | 0.00 | 0.00 | 67 | 1018.1 |
| 20260830203557 | 82 | 0 | 0.0 | 9.0 | 0.00 | 0.00 | 0.00 | 68 | 1017.9 |
| 20260830203123 | 82 | 169 | 3.0 | 11.0 | 0.00 | 0.00 | 0.00 | 67 | 1017.4 |
| 20260830202559 | 82 | 195 | 4.0 | 11.0 | 0.00 | 0.00 | 0.00 | 66 | 1017.4 |
| 20260830202058 | 82 | 202 | 4.0 | 9.0 | 0.00 | 0.00 | 0.00 | 66 | 1017.7 |
| 20260830201609 | 83 | 187 | 2.0 | 7.0 | 0.00 | 0.00 | 0.00 | 63 | 1017.9 |
| 20260830201058 | 83 | 222 | 1.0 | 7.0 | 0.00 | 0.00 | 0.00 | 63 | 1018.2 |
| 20260830200557 | 83 | 207 | 3.0 | 7.0 | 0.00 | 0.00 | 0.00 | 63 | 1018.4 |
| 20260830200107 | 84 | 223 | 1.0 | 3.0 | 0.00 | 0.00 | 0.00 | 62 | 1018.8 |
| 20260830195557 | 84 | 0 | 0.0 | 0.0 | 0.00 | 0.00 | 0.00 | 60 | 1019.3 |
| 20260830195101 | 84 | 0 | 0.0 | 4.0 | 0.00 | 0.00 | 0.00 | 60 | 1019.5 |
| 20260830194609 | 84 | 0 | 0.0 | 6.0 | 0.00 | 0.00 | 0.00 | 60 | 1019.8 |